Regional Weather Roundup
Issued by NWS

Home | Current Version | Previous Version | Graphics & Text | Print | Product List | Glossary On
Versions: 1 2 3 4 5 6 7 8 9 10 11 12 13 14 15 16 17 18 19 20 21 22 23 24 25 26 27 28 29 30 31 32 33 34 35 36 37 38 39 40 41 42 43 44 45 46 47 48 49 50
000
ASUS45 KSLC 180310
RWRUT

UTAH REGIONAL WEATHER ROUNDUP
NATIONAL WEATHER SERVICE SALT LAKE CITY UT
800 PM MST SAT FEB 17 2018

UTZ001>011-023>025-180400-

NORTHERN UTAH

CITY           SKY/WX    TMP DP  RH WIND       PRES   REMARKS
BRIGHAM CITY   MOCLDY    49  17  28 SW12      29.83F
HILL AFB       NOT AVBL
LOGAN          MOCLDY    54  16  22 S13       29.79F
OGDEN          CLOUDY    51  15  23 S18       29.82F
SALT LAKE CITY MOCLDY    56  15  20 S16G25    29.84F
TOOELE VALLEY  MOCLDY    52  18  25 S20G25    29.83F
WENDOVER       CLEAR     39  18  42 S7        29.81F WCI  34
HEBER CITY       N/A     37  12  35 S7        29.90F WCI  32
WEST JORDAN    MOCLDY    49  20  32 SE16      29.86F

$$

UTZ011>015-024>027-180400-

CENTRAL/NORTHEAST UTAH

CITY           SKY/WX    TMP DP  RH WIND       PRES   REMARKS
PROVO AIRPORT  PTCLDY    45  17  32 E3        29.91F
MOAB/CANYONLAN CLEAR     36  27  69 W3        30.01F
DELTA          CLEAR     46  19  34 S17       29.91F
PRICE          CLEAR     31  14  49 N8        30.02F WCI  23
RICHFIELD      CLEAR     46  10  23 SE8       29.95F
ROOSEVELT      CLEAR     37  10  32 W9        29.97F WCI  31
VERNAL         CLEAR     35  11  36 W7        29.95F WCI  29

$$

UTZ013>016-019>022-027-180400-

SOUTHERN UTAH

CITY           SKY/WX    TMP DP  RH WIND       PRES   REMARKS
BRYCE CANYON   CLEAR     37  20  50 SE13      30.11F WCI  29
CEDAR CITY     CLEAR     41  20  43 S15       30.04S
MILFORD        CLEAR     47  17  30 S21G31    29.98S
HANKSVILLE     CLEAR     39  14  35 CALM      30.04S
KANAB          CLEAR     34  25  69 CALM      30.13S
BLANDING         N/A     38  13  35 CALM      30.19S

$$

REGIONAL REPORTS     COLORADO/ARIZONA

CITY           SKY/WX    TMP DP  RH WIND       PRES   REMARKS
CRAIG, CO      CLEAR     29  13  51 CALM      29.96F
GRAND JUNCTION CLEAR     32  25  75 CALM      30.04F
RIFLE, CO      CLEAR     30  20  66 SE6       30.05S WCI  24
MONTROSE, CO   CLEAR     34  19  54 SE6       30.08S WCI  29
CORTEZ, CO     PTCLDY    30  16  56 NE8       30.14S WCI  22
COLORADO CITY    N/A     37  30  75 CALM      30.12S
PAGE, AZ       CLEAR     46  23  40 S3        30.07S
GRAND CANYON   PTCLDY    30  23  75 CALM      30.15F
KINGMAN, AZ    PTCLDY    50  27  40 S9        30.09S
FLAGSTAFF, AZ  PTCLDY    33  24  69 CALM      30.18S

$$

REGIONAL REPORTS    NEVADA/IDAHO/WYOMING

CITY           SKY/WX    TMP DP  RH WIND       PRES   REMARKS
LAS VEGAS, NV  PTCLDY    59  18  20 CALM      30.02F
ELY, NY        CLEAR     41  12  30 S17       29.96F
ELKO, NV       PTCLDY    42  18  37 SW6       29.87F
POCATELLO, ID  CLOUDY    46  22  38 S17       29.73F
BURLEY, ID     CLOUDY    51  23  33 SW20G26   29.70F
FORT BRIDGER,    N/A     39   9  28 SW23G32   29.86F WCI  28
EVANSTON, WY   PTCLDY    35  11  36 SW16      29.84F WCI  25
ROCK SPRINGS,  MOCLDY    35   7  31 SW10      29.84F WCI  27

$$



USA.gov is the U.S. government's official web portal to all federal, state and local government web resources and services.